Home > Weather > Sørumsand > Past weeks

Flag for Norway Weather for the Past 2 Weeks in Sørumsand, Norway

Now
25 °F

Passing clouds.


Feels Like: 15 °F
Forecast: 22 / 28 °F
Wind: 9 mph from North

Location: Oslo Gardermoen Airport

Current Time: Feb 12, 2016 at 7:25:15 AM

Latest Report: Feb 12, 2016 at 6:20 AM


Visibility: N/A

Pressure: 29.56 "Hg

Humidity: 59%

Dew point: 12 °F

Location of SørumsandLocation

Historic Weather in Sørumsand — Graph

°F

Sørumsand Temperature Yesterday

Maximum temperature yesterday: 34 °F (at 12:50 PM)
Minimum temperature yesterday: 25 °F (at 10:20 PM)
Average temperature yesterday: 30 °F

High & Low Weather Summary for the Past Weeks

 TemperatureHumidityPressure
High41 °F (Jan 29, 4:50 PM)100% (Jan 29, 10:50 AM)29.86 "Hg (Jan 29, 10:50 AM)
Low19 °F (Feb 1, 4:20 AM)38% (Feb 4, 1:20 PM)28.74 "Hg (Feb 9, 3:50 AM)
Average33 °F78%29.22 "Hg
* Reported Jan 28 5:20 AM — Feb 12 5:50 AM, Sørumsand, Weather by CustomWeather, © 2016

Note: Actual official high and low records may vary slightly from our data, if they occured in-between our weather recording intervals... More about our weather records

Advertising

Sørumsand Weather History for the Previous 24 Hours

 ConditionsComfort  
Time TempWeatherWind HumidityBarometerVisibility
5:50 AM
Fri, Feb 12
25 °FPassing clouds.8 mph59%29.56 "HgN/A
5:20 AM25 °FPassing clouds.7 mph59%29.56 "HgN/A
4:50 AM25 °FPassing clouds.7 mph59%29.56 "HgN/A
4:20 AM25 °FClear.10 mph63%29.56 "Hg10 mi
3:50 AM25 °FClear.9 mph63%29.56 "Hg10 mi
3:20 AM25 °FPassing clouds.7 mph59%29.59 "HgN/A
2:50 AM25 °FClear.9 mph59%29.59 "Hg10 mi
2:20 AM25 °FPassing clouds.8 mph63%29.59 "HgN/A
1:50 AM25 °FPassing clouds.6 mph63%29.59 "HgN/A
1:20 AM25 °FPassing clouds.8 mph63%29.59 "HgN/A
12:50 AM25 °FPassing clouds.10 mph63%29.59 "HgN/A
12:20 AM25 °FClear.12 mph63%29.59 "Hg10 mi
11:50 PM
Thu, Feb 11
25 °FPassing clouds.8 mph59%29.59 "HgN/A
10:50 PM25 °FPassing clouds.9 mph59%29.59 "HgN/A
10:20 PM25 °FClear.12 mph59%29.59 "Hg10 mi
9:50 PM27 °FPassing clouds.10 mph54%29.59 "HgN/A
9:20 PM27 °FPassing clouds.9 mph54%29.59 "HgN/A
8:50 PM27 °FPassing clouds.10 mph59%29.59 "HgN/A
8:20 PM27 °FClear.13 mph59%29.59 "Hg10 mi
7:50 PM27 °FClear.12 mph59%29.56 "Hg10 mi
6:50 PM27 °FPassing clouds.12 mph59%29.56 "HgN/A
6:20 PM28 °FPassing clouds.8 mph55%29.56 "HgN/A
5:50 PM28 °FPassing clouds.6 mph55%29.56 "HgN/A
5:20 PM28 °FPassing clouds.9 mph55%29.56 "HgN/A
4:50 PM30 °FSunny.14 mph51%29.53 "Hg10 mi
4:20 PM30 °FSunny.17 mph51%29.53 "Hg10 mi
3:50 PM32 °FSunny.20 mph51%29.50 "Hg10 mi
3:20 PM32 °FSunny.21 mph51%29.50 "Hg10 mi
2:50 PM32 °FScattered clouds.17 mph51%29.50 "HgN/A
2:20 PM34 °FPassing clouds.16 mph48%29.50 "HgN/A
1:50 PM34 °FPassing clouds.15 mph48%29.50 "HgN/A
1:20 PM34 °FPassing clouds.15 mph48%29.50 "HgN/A
12:50 PM34 °FPassing clouds.16 mph48%29.47 "HgN/A
12:20 PM32 °FSunny.17 mph51%29.47 "Hg10 mi
11:50 AM32 °FSunny.16 mph51%29.47 "Hg10 mi
11:20 AM32 °FSunny.18 mph55%29.47 "Hg10 mi
10:50 AM32 °FSunny.13 mph60%29.47 "Hg10 mi
10:20 AM30 °FPassing clouds.8 mph59%29.45 "HgN/A
9:50 AM30 °FPassing clouds.5 mph59%29.45 "HgN/A
9:20 AM30 °FPassing clouds.8 mph59%29.42 "HgN/A
8:50 AM30 °FPassing clouds.16 mph59%29.42 "HgN/A
8:20 AM30 °FPassing clouds.13 mph64%29.42 "HgN/A
7:50 AM30 °FPassing clouds.12 mph59%29.39 "HgN/A
7:20 AM30 °FPassing clouds.8 mph64%29.39 "HgN/A
Weather by CustomWeather, © 2016

See weather overviewHow to use our weather pages